小惑星2008 SO218

(330759) 2008 SO218 (2009)

English version
Home page
Updated on April 30, 2013

---------------------------------------------------------------------

・ プロフィール

符号 (330759) 2008 SO218
発見日 2008年9月30日
発見光度 19.6等
発見者 Mt. Lemmon Survey

・ 軌道要素

The following orbital elements are taken from MPO234340

Epoch 2012 Sept. 30.0 TT = JDT 2456200.5                MPC
M  42.68262              (2000.0)            P               Q
n   0.04250668     Peri.  354.54831     +0.99335742     -0.10974993
a   8.1313859      Node   348.08007     -0.09823305     -0.96532720
e   0.5637708      Incl.  170.36122     -0.05992744     -0.23685088
P  23.2            H   12.8           G   0.15           U   0
From 321 observations at 5 oppositions, 2008-2012, mean residual 0".50.

・ 光度変化

        H = 12.7  G = 0.15

---------------------------------------------------------------------

軌道要素はMPCのEphemerides and Orbital Elementsに掲載されたものです。
光度グラフはComet for Windowsで作成したものです。

---------------------------------------------------------------------

Copyright(C) Seiichi Yoshida (comet@aerith.net). All rights reserved.